,

(GMT )
Manston

Weather History for EGMH - October, 2012

Change the Weather History Date:

Sunday, October 28, 2012

  Actual Average Record
Temperature  
Mean Temperature 40 °F -  
Max Temperature 48 °F - - ()
Min Temperature 33 °F - - ()
Degree Days  
Heating Degree Days 24    
Moisture  
Dew Point 40 °F    
Average Humidity 84    
Maximum Humidity 99    
Minimum Humidity 61    
Precipitation  
Precipitation 0.04 in - - ()
Sea Level Pressure  
Sea Level Pressure 29.96 in    
Wind  
Wind Speed 10 mph ()    
Max Wind Speed 18 mph    
Max Gust Speed -    
Visibility 6.7 miles    
Events Rain    
T = Trace of Precipitation, MM = Missing Value Source: Averaged Metar Reports

Daily Weather History Graph

Daily Weather History Graph

Search for Another Location

Airport or City:

Astronomy

Oct. 28, 2012 Rise Set
Actual Time 6:41 AM GMT 4:34 PM GMT
Civil Twilight 6:06 AM GMT 5:09 PM GMT
Nautical Twilight 5:27 AM GMT 5:48 PM GMT
Astronomical Twilight 4:48 AM GMT 6:26 PM GMT
Moon 3:46 PM GMT (10/28) 5:15 AM GMT (10/28)
Length of Visible Light 11h 02m
Length of Day
9h 53m
Waxing Gibbous, 98% of the Moon is Illuminated
Oct 28
Waxing Gibbous
Oct 29
Full
Nov 7
Last Quarter
Nov 13
New
Nov 20
First Quarter

Hourly Weather History & Observations

Time (GMT) Temp. Windchill Dew Point Humidity Pressure Visibility Wind Dir Wind Speed Gust Speed Precip Events Conditions
12:50 AM 43 °F - 40 °F 86% 30.08 in 11 mi NNW 18.4 mph - -  
2:50 AM 42 °F - 39 °F 87% 30.07 in 14 mi NW 11.5 mph - -   Mostly Cloudy
6:20 AM 33.8 °F 27.0 °F 32.0 °F 93% 30.04 in 6.2 mi West 8.1 mph - N/A   Partly Cloudy
6:50 AM 33.8 °F 27.7 °F 32.0 °F 93% 30.04 in 6.2 mi West 6.9 mph - N/A   Partly Cloudy
7:20 AM 35.6 °F 29.9 °F 32.0 °F 87% 30.04 in 6.2 mi WSW 6.9 mph - N/A   Partly Cloudy
7:50 AM 37.4 °F 32.1 °F 33.8 °F 87% 30.04 in 6.2 mi WSW 6.9 mph - N/A   Partly Cloudy
8:20 AM 37.4 °F 32.1 °F 33.8 °F 87% 30.04 in 6.2 mi WSW 6.9 mph - N/A   Partly Cloudy
8:50 AM 40 °F - 37 °F 83% 30.04 in 22 mi SW 9.2 mph - -   Partly Cloudy
8:50 AM 39.2 °F 35.0 °F 35.6 °F 87% 30.04 in 6.2 mi SW 5.8 mph - N/A   Partly Cloudy
9:20 AM 41.0 °F 36.4 °F 35.6 °F 81% 30.04 in 6.2 mi WSW 6.9 mph - N/A   Partly Cloudy
9:50 AM 42.8 °F 38.0 °F 37.4 °F 81% 30.01 in 6.2 mi SW 8.1 mph - N/A   Partly Cloudy
10:20 AM 44.6 °F 39.2 °F 37.4 °F 76% 30.01 in 6.2 mi SW 10.4 mph - N/A   Partly Cloudy
10:50 AM 46.4 °F 41.1 °F 39.2 °F 76% 30.01 in 6.2 mi SW 11.5 mph - N/A   Mostly Cloudy
11:20 AM 46.4 °F 40.4 °F 37.4 °F 71% 29.98 in 6.2 mi SW 13.8 mph - N/A   Scattered Clouds
11:50 AM 48 °F - 39 °F 61% 29.98 in 22 mi SW 17.3 mph - -   Mostly Cloudy
11:50 AM 48.2 °F - 39.2 °F 71% 29.95 in 6.2 mi SW 13.8 mph - N/A   Scattered Clouds
12:20 PM 46.4 °F 40.4 °F 39.2 °F 76% 29.95 in 6.2 mi WSW 13.8 mph - N/A   Partly Cloudy
12:50 PM 48.2 °F - 39.2 °F 71% 29.95 in 6.2 mi WSW 11.5 mph - N/A   Partly Cloudy
1:20 PM 48.2 °F - 41.0 °F 76% 29.95 in 6.2 mi SW 12.7 mph - N/A   Partly Cloudy
1:50 PM 48.2 °F - 42.8 °F 82% 29.92 in 6.2 mi SW 13.8 mph - N/A   Partly Cloudy
2:20 PM 48.2 °F - 42.8 °F 82% 29.92 in 6.2 mi SW 12.7 mph - N/A   Partly Cloudy
2:50 PM 48 °F - 43 °F 77% 29.92 in 31 mi SW 13.8 mph - -   Overcast
2:50 PM 48.2 °F - 42.8 °F 82% 29.92 in 6.2 mi WSW 11.5 mph - N/A   Partly Cloudy
3:20 PM 48.2 °F - 42.8 °F 82% 29.89 in 6.2 mi SW 10.4 mph - N/A   Partly Cloudy
3:50 PM 48.2 °F - 42.8 °F 82% 29.89 in 6.2 mi SW 10.4 mph - N/A   Partly Cloudy
4:20 PM 46.4 °F 41.9 °F 42.8 °F 87% 29.89 in 6.2 mi SW 9.2 mph - N/A   Overcast
4:50 PM 46.4 °F 41.9 °F 42.8 °F 87% 29.89 in 6.2 mi SW 9.2 mph - N/A   Mostly Cloudy
5:20 PM 48.2 °F - 42.8 °F 82% 29.89 in 6.2 mi SW 10.4 mph - N/A   Overcast
5:50 PM 47 °F - 45 °F 91% 29.91 in 31 mi SW 11.5 mph - -   Mostly Cloudy
5:50 PM 48.2 °F - 44.6 °F 87% 29.89 in 6.2 mi WSW 9.2 mph - N/A   Mostly Cloudy
6:20 PM 46.4 °F 42.4 °F 44.6 °F 93% 29.89 in - SW 8.1 mph - N/A   Clear
6:50 PM 46.4 °F 42.9 °F 44.6 °F 93% 29.89 in 6.2 mi WSW 6.9 mph - N/A   Overcast
7:20 PM 46.4 °F 42.9 °F 44.6 °F 93% 29.89 in 6.2 mi WSW 6.9 mph - N/A Rain Light Rain
7:50 PM 46.4 °F 42.9 °F 44.6 °F 93% 29.89 in 6.2 mi SW 6.9 mph - N/A Rain Light Rain
8:20 PM 46.4 °F 42.9 °F 44.6 °F 93% 29.89 in 6.2 mi SW 6.9 mph - N/A Rain Light Rain
8:50 PM 46 °F - 46 °F 99% 29.91 in 9 mi SW 6.9 mph - - Rain Light Rain